Location: Azul
(36.7830°S, 59.8500°W)
Time: 02:21:02
(UTC-03:00)

CAS-4A - Pass Details

Date: 26 October 2021
Orbit: 529 x 539 km, 43.0° (Epoch: 04 December)

Event Time Altitude Azimuth Distance (km) Brightness Sun altitude
Exits shadow 04:42:02 12° 243° (WSW) 1,674 ? -15.4°
Maximum altitude 04:45:26 33° 179° (S) 916 ? -14.8°
Drops below altitude 10° 04:49:10 10° 114° (ESE) 1,794 ? -14.1°
Sets 04:51:35 0° 104° (ESE) 2,684 ? -13.7°
